Regional Weather Roundup
Issued by NWS

Home | Current Version | Previous Version | Graphics & Text | Print | Product List | Glossary On
Versions: 1 2 3 4 5 6 7 8 9 10 11 12 13 14 15 16 17 18 19 20 21 22 23 24 25 26 27 28 29 30 31 32 33 34 35 36 37 38 39 40 41 42 43 44 45 46 47 48 49 50
000
ASUS43 KIND 251709
RWRIN

WEATHER ROUNDUP FOR INDIANA
NATIONAL WEATHER SERVICE INDIANAPOLIS IN
100 PM EDT TUE APR 25 2017

NOTE: "FAIR" INDICATES FEW OR NO CLOUDS BELOW 12,000 FEET WITH NO
SIGNIFICANT WEATHER AND/OR OBSTRUCTIONS TO VISIBILITY.

* - STATION DOES NOT REPORT WEATHER SUCH AS PRECIPITATION OR FOG.

+ - STATION NOT QUALITY CONTROLLED BY THE NATIONAL WEATHER SERVICE.
    USE DATA WITH CAUTION...ESPECIALLY DEWPOINT AND RELATIVE
    HUMIDITY OBSERVATIONS.

INZ001>003-010>013-019-020-251800-
NORTHWEST INDIANA

CITY           SKY/WX    TMP DP  RH WIND       PRES   REMARKS
GARY /AIRPORT/ PTSUNNY   73  46  38 SE9       29.70F
KNOX *+        SUNNY     70  30  23 S12       29.74S
LA PORTE +     SUNNY     71  54  55 S9        29.74S
MICHIGAN CITY+ CLOUDY    72  52  49 SW13      29.73S
MONTICELLO +   MOSUNNY   70  52  52 S5        29.73F
RENSSELAER +   MOSUNNY   73  45  35 S12G20    29.72F
VALPARAISO     MOSUNNY   74  50  42 S8        29.73F

$$

LMZ046-743>745-251800-
SOUTHERN LAKE MICHIGAN

STATION/POSITION TIME  TEMP    WIND        PRES    WAVE
                       AIR SEA DIR/SP/G            HT
                 (UTC) (F)     (DEG/KT/KT) (MB)    (FT)
BURNS HARBOR     1640   72     180/  8/ 15 1006.8F
MICHIGAN CITY    1640   68     160/  9/ 11   N/A

$$

INZ004-005-014>016-021>024-251800-
NORTH CENTRAL INDIANA

CITY           SKY/WX    TMP DP  RH WIND       PRES   REMARKS
ELKHART        MOSUNNY   68  54  60 S12       29.75F
GOSHEN         SUNNY     69  53  56 S12       29.77S
LOGANSPORT +   MOSUNNY   70  54  56 S10       29.76F
PERU/GRISSOM   SUNNY     71  56  59 S10       29.74F
ROCHESTER +    SUNNY     72  54  53 SE9       29.75F
SOUTH BEND       N/A    N/A N/A N/A MISG      29.75F
WARSAW +       MOSUNNY   66  52  59 S8        29.77S

$$

INZ006>009-017-018-025>027-251800-
NORTHEAST INDIANA

CITY           SKY/WX    TMP DP  RH WIND       PRES   REMARKS
ANGOLA *+      PTSUNNY   64  55  72 SE9       29.78F
AUBURN +       SUNNY     68  52  56 SE6       29.78F
FORT WAYNE     PTSUNNY   68  54  60 SE14      29.78F
HUNTINGTON +   SUNNY     68  53  60 E8G18     29.76F
KENDALLVILLE + MOSUNNY   66  54  64 SE9G17    29.78F

$$

INZ028-029-035-036-043>045-051>053-251800-
WEST CENTRAL INDIANA

CITY           SKY/WX    TMP DP  RH WIND       PRES   REMARKS
CRAWFORDSVL +  SUNNY     70  53  54 SW8       29.74F
GREENCASTLE +  SUNNY     70  52  52 SE5       29.75F
LAFAYETTE      SUNNY     72  53  51 MISG      29.73F
TERRE HAUTE    MOSUNNY   73  55  53 S3        29.73F

$$

INZ030>032-037>040-046>048-054>057-064-065-251800-
CENTRAL INDIANA

CITY           SKY/WX    TMP DP  RH WIND       PRES   REMARKS
CP ATTERBURY + SUNNY     70  54  56 E5        29.76F
FISHERS *+     SUNNY     72  59  64 S8        29.75F
FRANKFORT +    SUNNY     75  55  49 S7        29.76F
GREENWOOD *+   SUNNY     70  53  54 S3        29.77F
INDIANAPOLIS   MOSUNNY   70  54  56 VRB7      29.75F
-EAGLE CREEK   SUNNY     71  54  54 SE6       29.75F
KOKOMO +       MOSUNNY   70  55  59 S12       29.76F
MARION +       SUNNY     70  54  56 SE3       29.77F
MT COMFORT *+  MOSUNNY   70  54  56 SE6       29.77F
SHELBYVILLE    MOSUNNY   70  52  52 S8        29.76F
ZIONSVILLE +   SUNNY     68  53  58 SE7       29.76F

$$

INZ033-034-041-042-049-050-058-059-251800-
EAST CENTRAL INDIANA

CITY           SKY/WX    TMP DP  RH WIND       PRES   REMARKS
MUNCIE         MOSUNNY   70  53  54 SE9       29.76F
RICHMOND +     MOSUNNY   66  52  59 S6        29.79F

$$

INZ060-061-067>069-081>083-085>088-251800-
SOUTHWEST INDIANA

CITY           SKY/WX    TMP DP  RH WIND       PRES   REMARKS
EVANSVILLE     MOSUNNY   75  56  51 S8        29.75F
HUNTINGBURG *+ MOSUNNY   74  58  57 SE5       29.75F
WASHINGTON +   SUNNY    N/A N/A N/A MISG      29.74F

$$

INZ062-063-066-070>080-084-089>092-251800-
SOUTH CENTRAL AND SOUTHEAST INDIANA

CITY           SKY/WX    TMP DP  RH WIND       PRES   REMARKS
BEDFORD +      SUNNY     72  52  49 CALM      29.75  THUNDER
BLOOMINGTON    SUNNY     71  53  52 SE6       29.76F
MADISON *+     PTSUNNY   70  52  52 SE3       29.80F
NORTH VERNON + CLOUDY    68  54  60 CALM      29.77F

$$





USA.gov is the U.S. government's official web portal to all federal, state and local government web resources and services.